| time (UTC) | temp F | wind direction | speed MPH | gust MPH | rain 1hr in | rain 24hr in | rain mn in | humidity % | barometer mb |
| 20260505203407 | 53 | 342 | 4.0 | 6.0 | 0.00 | 0.05 | 0.00 | 57 | 1006.6 |
| 20260505202908 | 53 | 345 | 3.0 | 6.0 | 0.00 | 0.05 | 0.00 | 57 | 1006.6 |
| 20260505202408 | 53 | 357 | 3.0 | 6.0 | 0.00 | 0.05 | 0.00 | 57 | 1006.5 |
| 20260505201908 | 54 | 0 | 3.0 | 5.0 | 0.00 | 0.05 | 0.00 | 55 | 1006.7 |
| 20260505201408 | 54 | 342 | 3.0 | 6.0 | 0.00 | 0.05 | 0.00 | 54 | 1006.7 |
| 20260505200907 | 55 | 350 | 3.0 | 7.0 | 0.00 | 0.05 | 0.00 | 54 | 1006.6 |
| 20260505200408 | 55 | 333 | 3.0 | 9.0 | 0.00 | 0.05 | 0.00 | 56 | 1006.5 |
| 20260505195907 | 54 | 318 | 3.0 | 9.0 | 0.00 | 0.05 | 0.00 | 53 | 1006.5 |
| 20260505195408 | 53 | 267 | 3.0 | 9.0 | 0.00 | 0.05 | 0.00 | 53 | 1006.4 |
| 20260505194407 | 52 | 338 | 3.0 | 7.0 | 0.00 | 0.05 | 0.00 | 59 | 1006.4 |
| 20260505193908 | 52 | 7 | 4.0 | 6.0 | 0.00 | 0.05 | 0.00 | 58 | 1006.4 |
| 20260505192907 | 53 | 357 | 3.0 | 6.0 | 0.00 | 0.05 | 0.00 | 58 | 1006.3 |
| 20260505192407 | 53 | 352 | 3.0 | 7.0 | 0.00 | 0.05 | 0.00 | 56 | 1006.3 |
| 20260505191908 | 53 | 331 | 4.0 | 12.0 | 0.00 | 0.05 | 0.00 | 58 | 1006.3 |
| 20260505191408 | 53 | 319 | 2.0 | 5.0 | 0.00 | 0.05 | 0.00 | 59 | 1006.1 |
| 20260505190908 | 53 | 26 | 4.0 | 16.0 | 0.00 | 0.05 | 0.00 | 55 | 1006.1 |
| 20260505190408 | 52 | 261 | 5.0 | 15.0 | 0.00 | 0.05 | 0.00 | 50 | 1006.0 |
| 20260505185907 | 51 | 341 | 3.0 | 12.0 | 0.00 | 0.05 | 0.00 | 60 | 1006.0 |
| 20260505185407 | 51 | 356 | 3.0 | 6.0 | 0.00 | 0.05 | 0.00 | 63 | 1005.9 |
| 20260505184908 | 50 | 354 | 3.0 | 5.0 | 0.00 | 0.05 | 0.00 | 65 | 1005.9 |
| 20260505184407 | 50 | 357 | 3.0 | 6.0 | 0.00 | 0.05 | 0.00 | 63 | 1006.0 |
| 20260505183907 | 50 | 350 | 3.0 | 5.0 | 0.00 | 0.05 | 0.00 | 63 | 1005.9 |
| 20260505182907 | 50 | 343 | 3.0 | 9.0 | 0.00 | 0.05 | 0.00 | 61 | 1005.8 |
| 20260505182408 | 50 | 20 | 4.0 | 8.0 | 0.00 | 0.05 | 0.00 | 66 | 1005.9 |
| 20260505181908 | 49 | 335 | 3.0 | 7.0 | 0.00 | 0.05 | 0.00 | 61 | 1006.0 |
| 20260505181407 | 49 | 265 | 3.0 | 8.0 | 0.00 | 0.05 | 0.00 | 64 | 1005.8 |
| 20260505180907 | 49 | 333 | 5.0 | 8.0 | 0.00 | 0.05 | 0.00 | 64 | 1005.6 |
| 20260505180408 | 49 | 349 | 2.0 | 5.0 | 0.00 | 0.05 | 0.00 | 63 | 1005.7 |
| 20260505175907 | 49 | 341 | 2.0 | 6.0 | 0.00 | 0.05 | 0.00 | 63 | 1005.6 |
| 20260505175407 | 50 | 346 | 2.0 | 8.0 | 0.00 | 0.05 | 0.00 | 60 | 1005.6 |
| 20260505174907 | 51 | 351 | 3.0 | 6.0 | 0.00 | 0.05 | 0.00 | 60 | 1005.4 |
| 20260505174407 | 51 | 339 | 3.0 | 7.0 | 0.00 | 0.05 | 0.00 | 61 | 1005.5 |
| 20260505173908 | 51 | 340 | 3.0 | 6.0 | 0.00 | 0.05 | 0.00 | 60 | 1005.5 |
| 20260505173407 | 51 | 1 | 3.0 | 6.0 | 0.00 | 0.05 | 0.00 | 62 | 1005.6 |
| 20260505172907 | 51 | 345 | 3.0 | 6.0 | 0.00 | 0.05 | 0.00 | 62 | 1005.6 |
| 20260505172408 | 51 | 352 | 3.0 | 7.0 | 0.00 | 0.05 | 0.00 | 62 | 1005.6 |
| 20260505171907 | 51 | 7 | 3.0 | 6.0 | 0.00 | 0.05 | 0.00 | 63 | 1005.6 |
| 20260505170906 | 50 | 351 | 4.0 | 8.0 | 0.00 | 0.05 | 0.00 | 64 | 1005.6 |
| 20260505165408 | 50 | 336 | 4.0 | 9.0 | 0.00 | 0.05 | 0.00 | 66 | 1005.5 |
| 20260505164908 | 49 | 349 | 3.0 | 8.0 | 0.00 | 0.05 | 0.00 | 67 | 1005.5 |
| 20260505164407 | 49 | 354 | 3.0 | 6.0 | 0.00 | 0.05 | 0.00 | 67 | 1005.6 |
| 20260505163407 | 48 | 348 | 3.0 | 6.0 | 0.00 | 0.05 | 0.00 | 67 | 1005.6 |
| 20260505161908 | 48 | 354 | 3.0 | 5.0 | 0.00 | 0.05 | 0.00 | 68 | 1005.7 |
| 20260505161408 | 48 | 350 | 3.0 | 7.0 | 0.00 | 0.05 | 0.00 | 66 | 1005.8 |
| 20260505160907 | 48 | 359 | 3.0 | 6.0 | 0.00 | 0.05 | 0.00 | 68 | 1005.9 |
| 20260505160408 | 48 | 336 | 3.0 | 5.0 | 0.00 | 0.05 | 0.00 | 67 | 1005.9 |
| 20260505152908 | 48 | 356 | 3.0 | 5.0 | 0.00 | 0.05 | 0.00 | 68 | 1005.7 |
| 20260505152406 | 48 | 10 | 3.0 | 6.0 | 0.00 | 0.05 | 0.00 | 68 | 1005.6 |
| 20260505151408 | 48 | 26 | 2.0 | 5.0 | 0.00 | 0.05 | 0.00 | 68 | 1005.5 |
| 20260505150907 | 48 | 359 | 2.0 | 3.0 | 0.00 | 0.05 | 0.00 | 68 | 1005.4 |
| 20260505150408 | 48 | 357 | 2.0 | 5.0 | 0.00 | 0.05 | 0.00 | 70 | 1005.3 |
| 20260505140407 | 43 | 308 | 3.0 | 12.0 | 0.00 | 0.05 | 0.00 | 77 | 1004.8 |
| 20260505124907 | 43 | 324 | 2.0 | 6.0 | 0.00 | 0.05 | 0.00 | 82 | 1003.8 |
| 20260505124407 | 42 | 317 | 1.0 | 5.0 | 0.00 | 0.05 | 0.00 | 83 | 1003.8 |
| 20260505123907 | 42 | 306 | 2.0 | 9.0 | 0.00 | 0.05 | 0.00 | 81 | 1003.7 |
| 20260505122907 | 42 | 298 | 2.0 | 8.0 | 0.00 | 0.05 | 0.00 | 82 | 1003.6 |
| 20260505122408 | 42 | 303 | 2.0 | 7.0 | 0.00 | 0.05 | 0.00 | 82 | 1003.6 |
| 20260505121907 | 42 | 276 | 2.0 | 7.0 | 0.00 | 0.05 | 0.00 | 82 | 1003.7 |
| 20260505121408 | 42 | 304 | 2.0 | 8.0 | 0.00 | 0.05 | 0.00 | 82 | 1003.6 |
| 20260505120906 | 42 | 249 | 2.0 | 6.0 | 0.00 | 0.05 | 0.00 | 84 | 1003.5 |
| 20260505115907 | 41 | 284 | 2.0 | 5.0 | 0.00 | 0.05 | 0.00 | 83 | 1003.5 |
| 20260505115407 | 41 | 311 | 2.0 | 7.0 | 0.00 | 0.05 | 0.00 | 83 | 1003.3 |
| 20260505114908 | 41 | 277 | 2.0 | 7.0 | 0.00 | 0.05 | 0.00 | 85 | 1003.4 |
| 20260505113908 | 40 | 330 | 1.0 | 3.0 | 0.00 | 0.05 | 0.00 | 87 | 1003.1 |
| 20260505113407 | 40 | 331 | 1.0 | 3.0 | 0.00 | 0.05 | 0.00 | 88 | 1003.1 |
| 20260505112908 | 40 | 284 | 2.0 | 3.0 | 0.00 | 0.05 | 0.00 | 88 | 1003.2 |
| 20260505111907 | 39 | 316 | 2.0 | 3.0 | 0.00 | 0.05 | 0.00 | 88 | 1003.0 |
| 20260505111407 | 39 | 308 | 1.0 | 7.0 | 0.00 | 0.05 | 0.00 | 88 | 1003.0 |
| 20260505110906 | 39 | 254 | 1.0 | 6.0 | 0.00 | 0.05 | 0.00 | 88 | 1002.8 |
| 20260505110408 | 39 | 324 | 1.0 | 8.0 | 0.00 | 0.05 | 0.00 | 88 | 1002.6 |
| 20260505101906 | 40 | 319 | 1.0 | 3.0 | 0.00 | 0.06 | 0.00 | 85 | 1001.9 |
| 20260505101407 | 40 | 319 | 2.0 | 5.0 | 0.00 | 0.06 | 0.00 | 87 | 1001.9 |
| 20260505100906 | 40 | 340 | 2.0 | 3.0 | 0.00 | 0.06 | 0.00 | 88 | 1001.8 |
| 20260505100407 | 40 | 307 | 1.0 | 2.0 | 0.00 | 0.06 | 0.00 | 89 | 1001.7 |
| 20260505095907 | 41 | 315 | 1.0 | 5.0 | 0.00 | 0.06 | 0.00 | 89 | 1001.5 |
| 20260505094907 | 41 | 309 | 1.0 | 3.0 | 0.00 | 0.06 | 0.00 | 89 | 1001.6 |
| 20260505093907 | 41 | 269 | 1.0 | 6.0 | 0.00 | 0.06 | 0.00 | 88 | 1001.5 |
| 20260505093407 | 41 | 298 | 1.0 | 3.0 | 0.00 | 0.06 | 0.00 | 89 | 1001.5 |
| 20260505092907 | 41 | 298 | 1.0 | 3.0 | 0.00 | 0.06 | 0.00 | 89 | 1001.3 |
| 20260505092408 | 41 | 314 | 1.0 | 3.0 | 0.00 | 0.06 | 0.00 | 88 | 1001.4 |
| 20260505091908 | 41 | 316 | 1.0 | 6.0 | 0.00 | 0.06 | 0.00 | 88 | 1001.4 |
| 20260505091407 | 41 | 307 | 1.0 | 3.0 | 0.00 | 0.06 | 0.00 | 88 | 1001.4 |
| 20260505090906 | 41 | 311 | 1.0 | 3.0 | 0.00 | 0.06 | 0.00 | 88 | 1001.3 |
| 20260505090407 | 42 | 298 | 1.0 | 3.0 | 0.00 | 0.06 | 0.00 | 88 | 1001.3 |
| 20260505085907 | 42 | 298 | 1.0 | 2.0 | 0.00 | 0.06 | 0.00 | 87 | 1001.3 |
| 20260505085407 | 42 | 321 | 1.0 | 3.0 | 0.00 | 0.06 | 0.00 | 87 | 1001.1 |
| 20260505084907 | 42 | 309 | 2.0 | 3.0 | 0.00 | 0.06 | 0.00 | 87 | 1001.1 |
| 20260505084407 | 42 | 336 | 2.0 | 3.0 | 0.00 | 0.06 | 0.00 | 87 | 1001.2 |
| 20260505083907 | 42 | 337 | 1.0 | 3.0 | 0.00 | 0.06 | 0.00 | 87 | 1001.1 |
| 20260505083409 | 42 | 304 | 1.0 | 3.0 | 0.00 | 0.06 | 0.00 | 87 | 1001.1 |
| 20260505082907 | 42 | 321 | 1.0 | 3.0 | 0.00 | 0.06 | 0.00 | 87 | 1001.0 |
| 20260505082407 | 42 | 337 | 1.0 | 3.0 | 0.00 | 0.06 | 0.00 | 86 | 1001.0 |
| 20260505081907 | 42 | 332 | 2.0 | 3.0 | 0.00 | 0.06 | 0.00 | 86 | 1001.1 |
| 20260505081407 | 42 | 346 | 1.0 | 3.0 | 0.00 | 0.06 | 0.00 | 86 | 1000.9 |
| 20260505080907 | 43 | 329 | 1.0 | 3.0 | 0.00 | 0.06 | 0.00 | 86 | 1000.8 |
| 20260505080410 | 43 | 317 | 1.0 | 3.0 | 0.00 | 0.06 | 0.00 | 85 | 1000.9 |
| 20260505075908 | 43 | 307 | 1.0 | 5.0 | 0.00 | 0.06 | 0.00 | 84 | 1000.7 |
| 20260505075408 | 43 | 318 | 1.0 | 3.0 | 0.00 | 0.06 | 0.00 | 84 | 1000.8 |
| 20260505074907 | 43 | 318 | 2.0 | 5.0 | 0.00 | 0.06 | 0.00 | 83 | 1000.8 |
| 20260505074407 | 43 | 330 | 2.0 | 3.0 | 0.00 | 0.06 | 0.00 | 84 | 1000.9 |
| 20260505073907 | 43 | 307 | 2.0 | 3.0 | 0.00 | 0.06 | 0.00 | 85 | 1000.8 |
| 20260505073408 | 43 | 315 | 1.0 | 3.0 | 0.00 | 0.06 | 0.00 | 85 | 1000.8 |
| 20260505072908 | 43 | 314 | 1.0 | 5.0 | 0.00 | 0.06 | 0.00 | 85 | 1000.7 |
| 20260505072407 | 43 | 344 | 1.0 | 3.0 | 0.00 | 0.06 | 0.00 | 85 | 1000.8 |
| 20260505071909 | 43 | 307 | 1.0 | 3.0 | 0.00 | 0.06 | 0.00 | 85 | 1000.6 |
| 20260505071407 | 43 | 326 | 1.0 | 3.0 | 0.00 | 0.06 | 0.00 | 85 | 1000.7 |
| 20260505070906 | 43 | 289 | 1.0 | 3.0 | 0.00 | 0.06 | 0.00 | 84 | 1000.6 |
| 20260505070409 | 43 | 340 | 1.0 | 7.0 | 0.00 | 0.06 | 0.00 | 84 | 1000.6 |
| 20260505065907 | 43 | 305 | 2.0 | 3.0 | 0.00 | 0.06 | 0.00 | 84 | 1000.6 |
| 20260505065406 | 44 | 323 | 1.0 | 3.0 | 0.00 | 0.06 | 0.00 | 84 | 1000.6 |
| 20260505064908 | 44 | 310 | 1.0 | 3.0 | 0.00 | 0.06 | 0.00 | 84 | 1000.6 |
| 20260505064407 | 44 | 319 | 1.0 | 2.0 | 0.00 | 0.06 | 0.00 | 84 | 1000.6 |
| 20260505063906 | 44 | 307 | 1.0 | 5.0 | 0.00 | 0.06 | 0.00 | 83 | 1000.6 |
| 20260505062907 | 44 | 301 | 1.0 | 6.0 | 0.00 | 0.06 | 0.00 | 83 | 1000.6 |
| 20260505062407 | 44 | 8 | 1.0 | 3.0 | 0.00 | 0.06 | 0.00 | 82 | 1000.6 |
| 20260505061907 | 44 | 351 | 1.0 | 3.0 | 0.00 | 0.06 | 0.00 | 81 | 1000.6 |
| 20260505061407 | 44 | 298 | 1.0 | 3.0 | 0.00 | 0.06 | 0.00 | 82 | 1000.3 |
| 20260505060408 | 44 | 267 | 1.0 | 3.0 | 0.00 | 0.06 | 0.00 | 84 | 1000.4 |
| 20260505055907 | 44 | 235 | 1.0 | 3.0 | 0.00 | 0.06 | 0.00 | 83 | 1000.2 |
| 20260505054407 | 44 | 314 | 1.0 | 3.0 | 0.00 | 0.06 | 0.00 | 81 | 1000.0 |
| 20260505053906 | 44 | 325 | 1.0 | 3.0 | 0.00 | 0.06 | 0.00 | 82 | 1000.1 |
| 20260505053409 | 44 | 316 | 1.0 | 3.0 | 0.00 | 0.06 | 0.00 | 83 | 1000.1 |
| 20260505052907 | 44 | 330 | 1.0 | 3.0 | 0.00 | 0.06 | 0.00 | 83 | 1000.0 |
| 20260505052406 | 44 | 342 | 1.0 | 3.0 | 0.00 | 0.06 | 0.00 | 83 | 999.9 |
| 20260505051906 | 44 | 1 | 1.0 | 3.0 | 0.00 | 0.06 | 0.00 | 83 | 1000.0 |
| 20260505051406 | 45 | 312 | 1.0 | 3.0 | 0.00 | 0.06 | 0.00 | 84 | 1000.0 |
| 20260505050907 | 45 | 317 | 1.0 | 3.0 | 0.00 | 0.06 | 0.00 | 84 | 999.8 |
| 20260505041407 | 44 | 355 | 1.0 | 2.0 | 0.00 | 0.06 | 0.00 | 87 | 999.2 |
| 20260505040907 | 44 | 343 | 1.0 | 3.0 | 0.00 | 0.06 | 0.00 | 86 | 999.2 |
| 20260505040407 | 44 | 357 | 1.0 | 3.0 | 0.00 | 0.06 | 0.00 | 86 | 999.1 |
| 20260505035410 | 44 | 340 | 2.0 | 3.0 | 0.00 | 0.06 | 0.06 | 87 | 998.9 |
| 20260505034906 | 44 | 345 | 2.0 | 7.0 | 0.00 | 0.06 | 0.06 | 88 | 998.8 |
| 20260505034408 | 44 | 23 | 2.0 | 6.0 | 0.00 | 0.06 | 0.06 | 89 | 998.9 |
| 20260505033907 | 44 | 15 | 2.0 | 5.0 | 0.00 | 0.06 | 0.06 | 89 | 998.7 |
| 20260505031906 | 44 | 106 | 0.0 | 2.0 | 0.00 | 0.06 | 0.06 | 91 | 998.5 |
| 20260505031407 | 44 | 222 | 0.0 | 2.0 | 0.00 | 0.06 | 0.06 | 91 | 998.5 |
| 20260505030906 | 44 | 153 | 1.0 | 3.0 | 0.00 | 0.06 | 0.06 | 91 | 998.6 |
| 20260505030407 | 44 | 174 | 1.0 | 3.0 | 0.00 | 0.06 | 0.06 | 90 | 998.5 |
| 20260505025907 | 45 | 297 | 1.0 | 2.0 | 0.00 | 0.06 | 0.06 | 90 | 998.5 |
| 20260505025406 | 45 | 16 | 0.0 | 2.0 | 0.00 | 0.06 | 0.06 | 90 | 998.6 |
| 20260505024407 | 45 | 300 | 0.0 | 2.0 | 0.00 | 0.06 | 0.06 | 91 | 998.7 |
| 20260505023906 | 45 | 322 | 0.0 | 1.0 | 0.00 | 0.06 | 0.06 | 91 | 998.7 |
| 20260505023407 | 45 | 283 | 1.0 | 2.0 | 0.00 | 0.06 | 0.06 | 91 | 998.4 |
| 20260505022906 | 45 | 5 | 1.0 | 2.0 | 0.00 | 0.06 | 0.06 | 91 | 998.4 |
| 20260505022407 | 45 | 324 | 1.0 | 2.0 | 0.00 | 0.06 | 0.06 | 91 | 998.4 |
| 20260505021906 | 45 | 1 | 1.0 | 2.0 | 0.00 | 0.06 | 0.06 | 92 | 998.5 |
| 20260505021407 | 45 | 2 | 1.0 | 3.0 | 0.00 | 0.06 | 0.06 | 93 | 998.6 |
| 20260505020907 | 46 | 308 | 2.0 | 6.0 | 0.00 | 0.06 | 0.06 | 93 | 998.4 |
| 20260505020407 | 46 | 38 | 1.0 | 3.0 | 0.00 | 0.06 | 0.06 | 93 | 998.8 |
| 20260505015908 | 46 | 181 | 0.0 | 3.0 | 0.00 | 0.06 | 0.06 | 93 | 998.5 |
| 20260505015406 | 46 | 54 | 1.0 | 2.0 | 0.00 | 0.06 | 0.06 | 93 | 998.6 |
| 20260505014907 | 46 | 298 | 0.0 | 2.0 | 0.01 | 0.06 | 0.06 | 93 | 998.1 |
| 20260505014408 | 46 | 116 | 1.0 | 3.0 | 0.01 | 0.06 | 0.06 | 93 | 998.1 |
| 20260505013907 | 46 | 112 | 0.0 | 2.0 | 0.01 | 0.06 | 0.06 | 93 | 998.1 |
| 20260505013407 | 46 | 136 | 1.0 | 2.0 | 0.01 | 0.06 | 0.06 | 93 | 998.3 |
| 20260505012907 | 46 | 142 | 1.0 | 2.0 | 0.01 | 0.06 | 0.06 | 93 | 998.1 |
| 20260505012407 | 46 | 188 | 1.0 | 2.0 | 0.01 | 0.06 | 0.06 | 92 | 997.6 |
| 20260505011907 | 46 | 192 | 1.0 | 2.0 | 0.01 | 0.06 | 0.06 | 92 | 997.6 |
| 20260505011406 | 46 | 147 | 1.0 | 3.0 | 0.02 | 0.06 | 0.06 | 92 | 997.3 |
| 20260505010907 | 46 | 118 | 1.0 | 2.0 | 0.02 | 0.06 | 0.06 | 92 | 997.4 |
| 20260505010407 | 46 | 303 | 1.0 | 3.0 | 0.02 | 0.06 | 0.06 | 93 | 997.2 |
| 20260505005906 | 46 | 183 | 1.0 | 6.0 | 0.02 | 0.06 | 0.06 | 92 | 997.2 |
| 20260505005407 | 46 | 52 | 2.0 | 5.0 | 0.03 | 0.06 | 0.06 | 93 | 997.4 |
| 20260505004906 | 46 | 52 | 2.0 | 3.0 | 0.03 | 0.05 | 0.05 | 93 | 997.4 |
| 20260505004406 | 46 | 187 | 1.0 | 3.0 | 0.03 | 0.05 | 0.05 | 92 | 997.4 |
| 20260505003907 | 46 | 173 | 2.0 | 3.0 | 0.03 | 0.05 | 0.05 | 92 | 997.7 |
| 20260505003407 | 47 | 178 | 2.0 | 3.0 | 0.03 | 0.05 | 0.05 | 92 | 997.6 |
| 20260505002906 | 47 | 97 | 1.0 | 3.0 | 0.03 | 0.05 | 0.05 | 91 | 997.6 |
| 20260505002407 | 47 | 107 | 1.0 | 2.0 | 0.03 | 0.05 | 0.05 | 91 | 997.5 |
| 20260505001408 | 47 | 162 | 1.0 | 3.0 | 0.03 | 0.04 | 0.04 | 90 | 997.3 |
| 20260505000407 | 47 | 124 | 0.0 | 3.0 | 0.03 | 0.04 | 0.04 | 90 | 997.2 |
| 20260504235906 | 47 | 320 | 0.0 | 3.0 | 0.03 | 0.04 | 0.04 | 90 | 997.0 |
| 20260504234906 | 47 | 83 | 1.0 | 2.0 | 0.01 | 0.02 | 0.02 | 89 | 997.1 |
| 20260504234407 | 47 | 190 | 1.0 | 3.0 | 0.01 | 0.02 | 0.02 | 88 | 996.8 |
| 20260504233906 | 47 | 204 | 3.0 | 3.0 | 0.01 | 0.03 | 0.02 | 87 | 996.2 |
| 20260504233406 | 47 | 116 | 1.0 | 3.0 | 0.01 | 0.03 | 0.02 | 85 | 996.1 |
| 20260504232907 | 48 | 349 | 1.0 | 5.0 | 0.01 | 0.03 | 0.02 | 85 | 996.0 |
| 20260504232407 | 48 | 358 | 2.0 | 3.0 | 0.01 | 0.05 | 0.02 | 85 | 996.2 |
| 20260504231907 | 48 | 313 | 1.0 | 3.0 | 0.00 | 0.06 | 0.01 | 83 | 995.9 |
| 20260504231406 | 48 | 101 | 1.0 | 3.0 | 0.00 | 0.07 | 0.01 | 82 | 995.9 |
| 20260504230906 | 49 | 271 | 1.0 | 3.0 | 0.00 | 0.10 | 0.01 | 80 | 995.6 |
| 20260504230407 | 49 | 332 | 2.0 | 3.0 | 0.00 | 0.11 | 0.01 | 80 | 995.4 |
| 20260504225407 | 50 | 343 | 2.0 | 3.0 | 0.00 | 0.14 | 0.01 | 79 | 995.5 |
| 20260504224906 | 50 | 330 | 2.0 | 6.0 | 0.00 | 0.15 | 0.01 | 76 | 995.3 |
| 20260504224407 | 50 | 341 | 1.0 | 3.0 | 0.00 | 0.15 | 0.01 | 76 | 995.1 |
| 20260504223906 | 51 | 251 | 1.0 | 3.0 | 0.00 | 0.15 | 0.01 | 75 | 995.0 |
| 20260504223406 | 51 | 225 | 1.0 | 3.0 | 0.00 | 0.15 | 0.01 | 74 | 995.3 |
| 20260504222906 | 51 | 143 | 2.0 | 5.0 | 0.00 | 0.15 | 0.01 | 72 | 994.9 |
| 20260504222407 | 51 | 270 | 2.0 | 6.0 | 0.00 | 0.15 | 0.01 | 68 | 994.9 |
| 20260504221907 | 52 | 45 | 2.0 | 3.0 | 0.00 | 0.15 | 0.01 | 69 | 995.1 |
| 20260504221406 | 53 | 161 | 2.0 | 5.0 | 0.00 | 0.15 | 0.01 | 67 | 994.4 |
| 20260504220407 | 54 | 1 | 3.0 | 7.0 | 0.00 | 0.15 | 0.01 | 61 | 994.0 |
| 20260504215908 | 55 | 1 | 2.0 | 6.0 | 0.00 | 0.15 | 0.01 | 60 | 993.8 |
| 20260504215407 | 56 | 8 | 2.0 | 5.0 | 0.00 | 0.15 | 0.01 | 58 | 993.7 |
| 20260504214907 | 56 | 1 | 1.0 | 3.0 | 0.00 | 0.15 | 0.01 | 58 | 993.5 |
| 20260504214406 | 58 | 43 | 2.0 | 3.0 | 0.00 | 0.15 | 0.01 | 55 | 993.4 |
| 20260504213406 | 63 | 354 | 2.0 | 5.0 | 0.00 | 0.15 | 0.01 | 47 | 993.2 |
| 20260504212906 | 67 | 28 | 2.0 | 9.0 | 0.00 | 0.15 | 0.01 | 41 | 993.2 |
| 20260504212406 | 71 | 30 | 1.0 | 10.0 | 0.00 | 0.15 | 0.01 | 37 | 992.6 |
| 20260504211407 | 73 | 262 | 7.0 | 14.0 | 0.00 | 0.15 | 0.01 | 34 | 992.4 |
| 20260504210407 | 73 | 239 | 6.0 | 13.0 | 0.00 | 0.15 | 0.01 | 35 | 992.4 |
| 20260504205906 | 72 | 193 | 6.0 | 10.0 | 0.00 | 0.15 | 0.01 | 35 | 992.4 |
| 20260504205406 | 72 | 239 | 6.0 | 13.0 | 0.00 | 0.15 | 0.01 | 35 | 992.4 |
| 20260504204909 | 72 | 225 | 7.0 | 23.0 | 0.00 | 0.15 | 0.01 | 35 | 992.5 |
| 20260504203906 | 71 | 201 | 7.0 | 13.0 | 0.00 | 0.15 | 0.01 | 35 | 992.5 |